• In Czech Republic
  • List of Countries
  • For 7 days
  • Water Temperature
  • Satellite Maps
  • Weather Map
  • Weather Widgets
  • user-avatar
    Login

    Hourly Weather Prutz

    Today, 22 January, Monday

    Time Temperature Precipitation Wind Pressure Humidity
    00:00 -7°C° 0.6 mm 2 mps 629 mmHg 92%
    01:00 -6°C° 0.6 mm 2 mps 629 mmHg 94%
    02:00 -5°C° 2.2 mm 2 mps 629 mmHg 94%
    03:00 -4°C° 2.2 mm 2 mps 629 mmHg 95%
    04:00 -3°C° 2.2 mm 2 mps 628 mmHg 96%
    05:00 -3°C° 2.9 mm 2 mps 628 mmHg 96%
    06:00 -2°C° 2.9 mm 2 mps 628 mmHg 96%
    07:00 -2°C° 2.9 mm 2 mps 628 mmHg 96%
    08:00 -1°C° 2 mm 2 mps 628 mmHg 96%
    09:00 -1°C° 2 mm 2 mps 629 mmHg 96%
    10:00 +1°C° 2 mm 2 mps 629 mmHg 96%
    11:00 +1°C° 1.5 mm 2 mps 629 mmHg 96%
    12:00 +3°C° 1.5 mm 1 mps 628 mmHg 97%
    13:00 +3°C° 1.5 mm 1 mps 628 mmHg 97%
    14:00 +3°C° 2.1 mm 1 mps 628 mmHg 97%
    15:00 +3°C° 2.1 mm 1 mps 628 mmHg 97%
    16:00 +3°C° 2.1 mm 1 mps 628 mmHg 96%
    17:00 +3°C° 1.9 mm 1 mps 629 mmHg 96%
    18:00 +1°C° 1.9 mm 2 mps 629 mmHg 97%
    19:00 +1°C° 1.9 mm 2 mps 630 mmHg 97%
    20:00 +1°C° 0.7 mm 2 mps 630 mmHg 97%
    21:00 -1°C° 0.7 mm 2 mps 631 mmHg 97%
    22:00 -1°C° 0.7 mm 2 mps 632 mmHg 96%
    23:00 -2°C° 0.1 mm 2 mps 632 mmHg 96%

    Tomorrow, 23 January, Tuesday

    Time Temperature Precipitation Wind Pressure Humidity
    00:00 -2°C° 0.1 mm 2 mps 632 mmHg 96%
    01:00 -3°C° 0.1 mm 2 mps 632 mmHg 95%
    02:00 -3°C° 0.1 mm 2 mps 632 mmHg 95%
    03:00 -4°C° 0.1 mm 2 mps 633 mmHg 95%
    04:00 -4°C° 0.1 mm 2 mps 633 mmHg 95%
    05:00 -4°C° 0.1 mm 2 mps 633 mmHg 95%
    06:00 -5°C° 0.1 mm 2 mps 634 mmHg 95%
    07:00 -5°C° 0.1 mm 2 mps 634 mmHg 95%
    08:00 -4°C° 0 mm 2 mps 635 mmHg 94%
    09:00 -3°C° 0 mm 2 mps 635 mmHg 94%
    10:00 -3°C° 0 mm 2 mps 636 mmHg 93%
    11:00 0°C° 0 mm 1 mps 636 mmHg 92%
    12:00 +1°C° 0 mm 1 mps 636 mmHg 92%
    13:00 +2°C° 0 mm 1 mps 636 mmHg 91%
    14:00 +2°C° 0 mm 1 mps 636 mmHg 90%
    15:00 +1°C° 0 mm 1 mps 636 mmHg 90%
    16:00 +1°C° 0 mm 1 mps 636 mmHg 89%
    17:00 0°C° 0 mm 1 mps 636 mmHg 82%
    18:00 -1°C° 0 mm 1 mps 636 mmHg 74%
    19:00 -5°C° 0 mm 2 mps 636 mmHg 67%
    20:00 -2°C° 0 mm 1 mps 636 mmHg 65%
    21:00 -2°C° 0 mm 1 mps 637 mmHg 63%
    22:00 -2°C° 0 mm 1 mps 637 mmHg 61%
    23:00 -1°C° 0 mm 1 mps 637 mmHg 61%

    Day after tomorrow, 24 January, Wednesday

    Time Temperature Precipitation Wind Pressure Humidity
    00:00 -1°C° 0 mm 1 mps 637 mmHg 60%
    01:00 -1°C° 0 mm 1 mps 637 mmHg 60%
    02:00 -1°C° 0 mm 1 mps 637 mmHg 59%
    03:00 -1°C° 0 mm 1 mps 637 mmHg 58%
    04:00 -2°C° 0 mm 1 mps 637 mmHg 58%
    05:00 -2°C° 0 mm 1 mps 637 mmHg 58%
    06:00 -4°C° 0 mm 2 mps 637 mmHg 58%
    07:00 -4°C° 0 mm 2 mps 637 mmHg 58%
    08:00 -2°C° 0 mm 2 mps 638 mmHg 63%
    09:00 -1°C° 0 mm 2 mps 638 mmHg 68%
    10:00 +1°C° 0 mm 2 mps 639 mmHg 73%
    11:00 +2°C° 0 mm 2 mps 638 mmHg 80%
    12:00 +3°C° 0 mm 2 mps 638 mmHg 86%
    13:00 +3°C° 0 mm 2 mps 638 mmHg 93%
    14:00 +3°C° 0 mm 2 mps 637 mmHg 91%
    15:00 +3°C° 0 mm 2 mps 637 mmHg 89%
    16:00 +2°C° 0 mm 2 mps 637 mmHg 87%
    17:00 +1°C° 0 mm 2 mps 637 mmHg 83%
    18:00 -1°C° 0 mm 3 mps 636 mmHg 79%
    19:00 -4°C° 0 mm 3 mps 636 mmHg 75%
    20:00 -4°C° 0 mm 3 mps 636 mmHg 74%
    21:00 -4°C° 0 mm 3 mps 636 mmHg 72%
    22:00 -4°C° 0 mm 3 mps 636 mmHg 71%
    23:00 -4°C° 0 mm 3 mps 635 mmHg 70%

    25 January, Thursday

    Time Temperature Precipitation Wind Pressure Humidity
    00:00 -4°C° 0 mm 3 mps 635 mmHg 70%
    01:00 -4°C° 0 mm 3 mps 635 mmHg 69%
    02:00 -4°C° 0 mm 3 mps 635 mmHg 69%
    03:00 -4°C° 0 mm 3 mps 635 mmHg 70%
    04:00 -4°C° 0 mm 3 mps 634 mmHg 70%
    05:00 -4°C° 0 mm 3 mps 634 mmHg 71%
    06:00 -4°C° 0 mm 3 mps 634 mmHg 72%
    07:00 -4°C° 0 mm 3 mps 634 mmHg 73%
    08:00 -4°C° 0 mm 3 mps 634 mmHg 75%
    09:00 -2°C° 0 mm 3 mps 634 mmHg 78%
    10:00 -1°C° 0 mm 3 mps 634 mmHg 81%
    11:00 0°C° 0 mm 3 mps 633 mmHg 84%
    12:00 0°C° 0 mm 3 mps 633 mmHg 88%
    13:00 +1°C° 0 mm 3 mps 633 mmHg 92%
    14:00 +1°C° 0 mm 3 mps 632 mmHg 92%
    15:00 +1°C° 0 mm 3 mps 632 mmHg 92%
    16:00 0°C° 0 mm 3 mps 632 mmHg 91%
    17:00 0°C° 0 mm 3 mps 632 mmHg 90%
    18:00 -1°C° 0 mm 3 mps 631 mmHg 89%
    19:00 -1°C° 0 mm 3 mps 631 mmHg 88%
    20:00 -1°C° 0.1 mm 3 mps 631 mmHg 88%
    21:00 -1°C° 0.1 mm 3 mps 631 mmHg 88%
    22:00 -2°C° 0.1 mm 2 mps 631 mmHg 89%
    23:00 -2°C° 0.2 mm 2 mps 631 mmHg 90%

    26 January, Friday

    Time Temperature Precipitation Wind Pressure Humidity
    00:00 -2°C° 0.2 mm 2 mps 631 mmHg 91%
    01:00 -2°C° 0.2 mm 2 mps 630 mmHg 92%
    02:00 -2°C° 0.4 mm 2 mps 630 mmHg 93%
    03:00 -3°C° 0.4 mm 2 mps 630 mmHg 94%
    04:00 -3°C° 0.4 mm 2 mps 630 mmHg 94%
    05:00 -1°C° 1 mm 1 mps 630 mmHg 95%
    06:00 -1°C° 1 mm 1 mps 630 mmHg 96%
    07:00 -1°C° 1 mm 1 mps 630 mmHg 96%
    08:00 0°C° 1.4 mm 1 mps 630 mmHg 97%
    09:00 0°C° 1.4 mm 1 mps 631 mmHg 97%
    10:00 0°C° 1.4 mm 1 mps 631 mmHg 97%
    11:00 0°C° 1.4 mm 1 mps 631 mmHg 97%
    12:00 0°C° 1.4 mm 1 mps 631 mmHg 97%
    13:00 -2°C° 1.4 mm 2 mps 631 mmHg 96%
    14:00 -2°C° 1.8 mm 2 mps 631 mmHg 97%
    15:00 -3°C° 1.8 mm 2 mps 631 mmHg 97%
    16:00 -3°C° 1.8 mm 2 mps 631 mmHg 97%
    17:00 -3°C° 1.6 mm 2 mps 631 mmHg 97%
    18:00 -4°C° 1.6 mm 2 mps 631 mmHg 97%
    19:00 -4°C° 1.6 mm 2 mps 631 mmHg 97%
    20:00 -5°C° 1.3 mm 2 mps 632 mmHg 97%
    21:00 -5°C° 1.3 mm 2 mps 632 mmHg 97%
    22:00 -5°C° 1.3 mm 2 mps 633 mmHg 97%
    23:00 -5°C° 0.7 mm 2 mps 633 mmHg 97%

    27 January, Saturday

    Time Temperature Precipitation Wind Pressure Humidity
    00:00 -3°C° 0.7 mm 1 mps 633 mmHg 97%
    01:00 -4°C° 0.7 mm 1 mps 633 mmHg 97%
    02:00 -4°C° 0.4 mm 1 mps 633 mmHg 97%
    03:00 -4°C° 0.4 mm 1 mps 633 mmHg 96%
    04:00 -4°C° 0.4 mm 1 mps 633 mmHg 96%
    05:00 -4°C° 0.3 mm 1 mps 634 mmHg 96%
    06:00 -4°C° 0.3 mm 1 mps 634 mmHg 96%
    07:00 -7°C° 0.3 mm 2 mps 635 mmHg 95%
    08:00 -6°C° 0.2 mm 2 mps 635 mmHg 95%
    09:00 -6°C° 0.2 mm 2 mps 636 mmHg 94%
    10:00 -5°C° 0.2 mm 2 mps 636 mmHg 94%
    11:00 -5°C° 0.2 mm 2 mps 637 mmHg 93%
    12:00 -4°C° 0.2 mm 2 mps 637 mmHg 92%
    13:00 -3°C° 0.2 mm 2 mps 637 mmHg 91%
    14:00 -4°C° 0.1 mm 2 mps 637 mmHg 92%
    15:00 -2°C° 0.1 mm 1 mps 637 mmHg 92%
    16:00 -2°C° 0.1 mm 1 mps 637 mmHg 93%
    17:00 -3°C° 0 mm 1 mps 637 mmHg 93%
    18:00 -6°C° 0 mm 1 mps 637 mmHg 94%
    19:00 -7°C° 0 mm 0 mps 637 mmHg 94%
    20:00 -7°C° 0 mm 1 mps 637 mmHg 91%
    21:00 -7°C° 0 mm 1 mps 637 mmHg 89%
    22:00 -8°C° 0 mm 1 mps 638 mmHg 86%
    23:00 -7°C° 0 mm 1 mps 638 mmHg 83%
    Show more